Estación de San Pedro
Ultimos registro cada 15 minutos 43
| N° | Estación | Fecha / Hora | Temperatura | Humedad | Lluvia | Velocidad | Dirección | Radiación | Presion |
| 43 | San Pedro | 08-05-2026 10:30 | 14,3 | 57,7 | 0 | 1 | 247 | 481,9 | 1005,2 |
| 42 | San Pedro | 08-05-2026 10:15 | 14,3 | 59,6 | 0 | 0,5 | 240 | 448,1 | 1005,3 |
| 41 | San Pedro | 08-05-2026 10:00 | 14,3 | 62,9 | 0 | 0 | 279 | 333,1 | 1005,6 |
| 40 | San Pedro | 08-05-2026 09:45 | 12,6 | 69,1 | 0 | 0 | 309 | 374,4 | 1005,7 |
| 39 | San Pedro | 08-05-2026 09:30 | 12,7 | 70,7 | 0 | 0 | 21 | 333,1 | 1005,6 |
| 38 | San Pedro | 08-05-2026 09:15 | 12 | 70,7 | 0 | 0 | 352 | 293,1 | 1005,4 |
| 37 | San Pedro | 08-05-2026 09:00 | 10,4 | 76,2 | 0 | 0 | 227 | 250,6 | 1005,5 |
| 36 | San Pedro | 08-05-2026 08:45 | 8,7 | 80,3 | 0 | 0 | 138 | 208,1 | 1005,7 |
| 35 | San Pedro | 08-05-2026 08:30 | 8,4 | 81 | 0 | 0 | 97 | 164,4 | 1005,5 |
| 34 | San Pedro | 08-05-2026 08:15 | 7,8 | 83,7 | 0 | 0 | 205 | 119,4 | 1005,5 |
| 33 | San Pedro | 08-05-2026 08:00 | 6,1 | 91,9 | 0 | 0 | 202 | 76,9 | 1005,5 |
| 32 | San Pedro | 08-05-2026 07:45 | 5,5 | 93,1 | 0 | 0 | 77 | 10,6 | 1005,6 |
| 31 | San Pedro | 08-05-2026 07:30 | 6,1 | 91,3 | 0 | 0 | 72 | 4,4 | 1005,6 |
| 30 | San Pedro | 08-05-2026 07:15 | 7,2 | 89 | 0 | 0 | 37 | 0,6 | 1005,6 |
| 29 | San Pedro | 08-05-2026 07:00 | 7,5 | 88,1 | 0 | 0 | 323 | 0,6 | 1005,6 |
| 28 | San Pedro | 08-05-2026 06:45 | 6,9 | 88,7 | 0 | 0 | 44 | 0,6 | 1005,8 |
| 27 | San Pedro | 08-05-2026 06:30 | 8,2 | 83,8 | 0 | 0 | 53 | 0,6 | 1005,6 |
| 26 | San Pedro | 08-05-2026 06:15 | 8,7 | 81 | 0 | 1 | 65 | 0,6 | 1005,7 |
| 25 | San Pedro | 08-05-2026 06:00 | 8,5 | 82,4 | 0 | 0 | 279 | 0,6 | 1005,9 |
| 24 | San Pedro | 08-05-2026 05:45 | 9,1 | 79,7 | 0 | 0,5 | 63 | 0,6 | 1005,9 |
| 23 | San Pedro | 08-05-2026 05:30 | 9,1 | 78,5 | 0 | 0 | 79 | 0,6 | 1005,7 |
| 22 | San Pedro | 08-05-2026 05:15 | 9 | 78,5 | 0 | 1 | 15 | 0,6 | 1005,5 |
| 21 | San Pedro | 08-05-2026 05:00 | 9,7 | 75,7 | 0 | 1 | 303 | 0,6 | 1005,6 |
| 20 | San Pedro | 08-05-2026 04:45 | 9,9 | 76,3 | 0 | 0,5 | 73 | 0,6 | 1005,5 |
| 19 | San Pedro | 08-05-2026 04:30 | 9,6 | 77,1 | 0 | 0,5 | 227 | 0,6 | 1005,3 |
| 18 | San Pedro | 08-05-2026 04:15 | 9,5 | 77,3 | 0 | 1 | 271 | 0,6 | 1005,2 |
| 17 | San Pedro | 08-05-2026 04:00 | 9,2 | 78,5 | 0 | 0,5 | 28 | 0,6 | 1005,1 |
| 16 | San Pedro | 08-05-2026 03:45 | 10,5 | 73,6 | 0 | 1,5 | 84 | 0,6 | 1005,4 |
| 15 | San Pedro | 08-05-2026 03:30 | 10,6 | 73,2 | 0 | 1 | 45 | 0,6 | 1006 |
| 14 | San Pedro | 08-05-2026 03:15 | 9,5 | 77 | 0 | 0 | 7 | 0,6 | 1006 |
| 13 | San Pedro | 08-05-2026 03:00 | 9,9 | 75,5 | 0 | 0 | 39 | 0,6 | 1006,2 |
| 12 | San Pedro | 08-05-2026 02:45 | 10,3 | 73,2 | 0 | 1 | 298 | 0,6 | 1006 |
| 11 | San Pedro | 08-05-2026 02:30 | 10,2 | 74,4 | 0 | 0 | 354 | 0,6 | 1006,2 |
| 10 | San Pedro | 08-05-2026 02:15 | 10,2 | 73,4 | 0 | 0 | 314 | 0,6 | 1006,2 |
| 9 | San Pedro | 08-05-2026 02:00 | 10,6 | 72,7 | 0 | 0 | 17 | 0,6 | 1006,2 |
| 8 | San Pedro | 08-05-2026 01:45 | 10,4 | 73,6 | 0 | 0,5 | 292 | 0,6 | 1006,5 |
| 7 | San Pedro | 08-05-2026 01:30 | 10 | 74,3 | 0 | 0 | 331 | 0,6 | 1006,7 |
| 6 | San Pedro | 08-05-2026 01:15 | 10,6 | 71,7 | 0 | 0,5 | 291 | 0,6 | 1007,1 |
| 5 | San Pedro | 08-05-2026 01:00 | 10,1 | 74,2 | 0 | 0 | 313 | 0,6 | 1006,7 |
| 4 | San Pedro | 08-05-2026 00:45 | 10,6 | 72,6 | 0 | 1 | 65 | 0,6 | 1007,2 |
| 3 | San Pedro | 08-05-2026 00:30 | 11,4 | 69,1 | 0 | 1 | 58 | 0,6 | 1007,4 |
| 2 | San Pedro | 08-05-2026 00:15 | 11,4 | 69,1 | 0 | 1 | 77 | 0,6 | 1007,4 |
| 1 | San Pedro | 08-05-2026 00:00 | 11 | 70,8 | 0 | 0 | 77 | 0,6 | 1007,5 |